Regional Weather Roundup
Issued by NWS State College, PA

Home | Current Version | Previous Version | Text Only | Print | Product List | Glossary On
Versions: 1 2 3 4 5 6 7 8 9 10 11 12 13 14 15 16 17 18 19 20 21 22 23 24 25 26 27 28 29 30 31 32 33 34 35 36 37 38 39 40 41 42 43 44 45 46 47 48 49 50
000
ASUS41 KCTP 210810
RWRCTP

REGIONAL WEATHER ROUNDUP
NATIONAL WEATHER SERVICE STATE COLLEGE PA
300 AM EST SUN DEC 21 2014

Note: "fair" indicates few or no clouds below 12,000 feet with no
significant weather and/or obstructions to visibility.

* = STATION THAT DOES NOT REPORT PRECIPITATION /E.G. RAIN...SNOW...ETC/
    THUNDER OR FOG.

PAZ002>004-007>009-013>016-020>023-029>032-210900-
WESTERN PENNSYLVANIA

CITY           SKY/WX    TMP DP  RH WIND       PRES   REMARKS
ERIE           CLOUDY    30  22  72 S6        30.28R
MEADVILLE      CLOUDY    27  21  78 CALM      30.24R
FRANKLIN*      CLOUDY    27  19  74 CALM      30.26R
NEW CASTLE       N/A     28  24  85 CALM      30.29R
BEAVER COUNTY  NOT AVBL
BUTLER*        CLOUDY    25  21  86 CALM      30.28R
PITTSBURGH INT CLOUDY    27  22  81 CALM      30.27R
PITTSBURGH     CLOUDY    28  18  66 CALM      30.25R
INDIANA*       CLOUDY    27  25  93 CALM      30.28R
LATROBE        CLOUDY    27  25  93 CALM      30.28R
WASHINGTON CO* NOT AVBL
$$

PAZ004>006-010>012-017>019-024>028-033>037-041-042-045-046-049>053-210900-
CENTRAL PENNSYLVANIA

CITY           SKY/WX    TMP DP  RH WIND       PRES   REMARKS
BRADFORD       CLOUDY    23  20  88 CALM      30.19S
DUBOIS         CLOUDY    25  21  85 CALM      30.21R
CLEARFIELD     CLOUDY    27  20  75 CALM      30.24R
JOHNSTOWN      CLOUDY    23  19  85 CALM      30.18S
ALTOONA        CLOUDY    26  23  88 CALM      30.24R
STATE COLLEGE  CLOUDY    28  22  80 CALM      30.25S
WILLIAMSPORT   CLOUDY    31  20  63 W7        30.28R
SELINSGROVE    CLOUDY    31  22  69 NW5       30.30R
FT INDIANTOWN  CLOUDY    29  24  81 CALM      30.28F
CAPITAL CITY   CLOUDY    29  22  75 CALM      30.30S
HARRISBURG     CLOUDY    29  22  75 NW6       30.29F
YORK           CLOUDY    26  22  84 CALM      30.29S
$$

PAZ038>040-043-044-047-048-054-055-060>062-067>071-210900-
EASTERN PENNSYLVANIA

CITY           SKY/WX    TMP DP  RH WIND       PRES   REMARKS
SCRANTON       CLOUDY    29  20  69 N3        30.25R
MOUNT POCONO   CLOUDY    24  19  81 NW3       30.19R
ALLENTOWN      CLOUDY    31  22  69 NW3       30.29R
QUAKERTOWN*    CLOUDY    30  25  80 CALM      30.29R
READING        CLOUDY    31  23  72 W5        30.29R
LANCASTER      CLOUDY    29  23  78 W3        30.29R
COATESVILLE    CLOUDY    30  27  86 W3        30.28S
POTTSTOWN      CLOUDY    31  20  63 CALM      30.30S
BLUE BELL      CLOUDY    32  28  86 CALM      30.28S
DOYLESTOWN     CLOUDY    29  23  78 CALM      30.28S
WILLOW GROVE   NOT AVBL
NORTH PHILA    CLOUDY    33  21  61 CALM      30.31S
PHILADELPHIA   CLOUDY    32  23  69 SE3       30.31S
$$


USA.gov is the U.S. government's official web portal to all federal, state and local government web resources and services.